Starlink 5626

operational
NORAD ID: 55435 Int'l Des: 2023-014 Owner: SPXS Country: US Constellation: starlink
LEOCIRCULAR

Starlink 5626について

説明を読み込み中...

リアルタイム位置

3D地球を読み込み中...

次回通過

高度履歴

Altitude vs Time

uPlot chart will show altitude changes over time

軌道要素

1 55435U 23014AW 25308.47630787 -.00003187 00000-0 -25932-3 0 9997
2 55435 70.0001 60.1377 0003320 283.3860 76.6929 14.98347743152315
Epoch: Nov 4, 2025 • Age: 12 hours

現在のステータス

高度 574.9 km
速度 7.57 km/s
衛星直下点 15.36°N, 161.9°W
打ち上げ日 Jan 31, 2023
運用期間 2.7 years
タイプ internet

技術仕様

分類 Payload
質量 305.00 kg
乾燥質量 290.00 kg
総質量 305.00 kg
長さ 0.20 m
直径 2.80 m
スパン 9.00 m
形状 Box + pan
製造者 SPXS
バスタイプ Starlink
フェーズステータス In Orbit
所有者/国 SPXS/US

大規模コンステレーション

Loading constellations...